Location: Bremen
(53.0793°N, 8.8017°E)
Time: 23:49:28
(UTC+02:00)

CUTE 1.7 + AOD 2 - Visible Passes

Search period start: 27 May 2024 00:00
Search period end: 06 June 2024 00:00
Orbit: 569 x 586 km, 97.8° (Epoch: 26 May)

Date Brightness Start Highest point End Pass type
(mag) Time Alt. Az. Time Alt. Az. Time Alt. Az.
03 Jun ? 03:36:37 10° ENE 03:37:20 10° E 03:38:03 10° E visible
04 Jun ? 03:40:08 10° ENE 03:41:31 11° E 03:42:53 10° ESE visible
05 Jun ? 03:43:53 10° ENE 03:45:40 12° E 03:47:28 10° ESE visible
